GEFSMA_500_meanwind_036.txt.gz
Wind_Speed
31 31 30 30 30 30 30 29 30 30 30 31 31 32 31 30 30 32 32 31 29 29 28 27 28 27 27 27 26 25 23 22 21 20 19 20 20 20 19 18 17 16 15
31 30 29 29 28 29 29 29 29 29 30 30 30 30 31 30 30 31 32 32 31 31 30 29 28 28 28 29 28 28 27 25 24 23 22 21 20 20 20 20 19 18 17
30 29 28 27 26 26 26 26 26 27 28 29 30 30 31 32 31 31 31 31 31 32 33 32 30 30 30 30 31 31 30 29 28 27 25 24 23 22 22 21 20 19 19
28 27 26 25 24 24 23 24 24 25 26 28 29 30 31 32 31 32 32 31 32 32 32 32 31 30 31 31 32 32 32 31 31 31 30 28 27 26 24 23 22 21 20
26 25 24 23 22 21 20 21 22 23 25 26 28 29 31 32 32 32 32 32 32 31 30 30 30 31 31 32 33 34 34 33 33 33 33 31 30 30 29 27 26 24 23
24 23 21 19 19 18 19 19 20 22 23 25 27 28 30 31 32 32 32 32 32 31 30 30 30 30 31 31 32 33 35 35 35 34 34 34 34 33 32 31 30 28 27
22 21 20 19 18 18 19 20 21 22 24 26 27 28 29 31 32 31 32 32 32 31 32 31 30 30 31 32 32 32 33 36 36 35 35 35 35 35 35 35 34 33 31
22 21 20 20 20 20 20 21 21 22 24 26 28 29 29 30 32 32 32 32 31 31 31 31 31 31 30 31 32 31 32 33 35 35 36 36 36 36 36 37 37 37 36
22 22 22 22 22 22 22 23 23 23 24 27 29 30 30 30 31 31 32 31 31 31 31 31 32 31 30 30 30 30 31 32 34 36 36 37 37 37 37 38 38 39 39
24 25 25 25 24 24 25 25 25 25 26 27 29 31 32 32 32 30 30 31 31 31 31 31 32 31 29 29 29 29 29 31 32 35 36 37 37 38 38 38 38 39 40
26 27 28 28 28 28 28 28 28 28 28 28 29 30 32 33 33 32 28 29 31 31 31 31 31 31 30 29 29 29 29 29 30 33 34 36 36 37 37 37 37 38 39
30 30 31 31 32 31 31 30 29 29 29 29 30 31 31 32 32 33 29 28 29 31 31 31 32 32 32 30 29 28 27 28 29 31 32 33 34 35 35 35 35 37 39
34 35 34 34 34 34 34 33 32 31 31 31 31 31 31 32 32 32 30 28 28 29 31 32 31 31 32 31 29 28 28 27 28 29 29 30 32 33 34 34 35 36 38
39 39 38 37 37 36 36 35 34 33 32 32 32 31 31 31 31 31 30 28 27 27 29 31 32 31 31 30 29 29 28 28 28 28 28 29 31 32 33 34 35 35 36
44 43 43 41 40 38 38 37 36 35 34 34 33 32 31 31 30 30 29 28 27 26 27 29 30 30 30 30 29 29 28 28 29 29 29 30 31 32 33 34 35 35 35
50 49 47 46 44 42 40 39 38 37 36 35 33 32 31 30 30 29 29 28 26 25 25 26 28 28 30 29 29 28 28 29 29 29 30 31 32 32 33 34 34 34 34
57 55 53 50 48 45 44 42 40 39 37 35 34 32 31 30 29 29 28 27 26 25 23 25 26 27 29 29 29 29 29 29 29 30 30 31 31 32 32 33 33 33 34
61 60 58 55 51 49 47 45 43 41 39 37 34 33 31 29 28 28 27 26 25 23 23 23 25 26 27 28 29 29 29 29 29 30 31 30 30 30 30 30 31 31 31
65 63 60 58 56 53 50 48 45 42 41 38 35 33 31 29 28 27 27 26 24 23 23 24 24 25 26 27 28 28 29 29 29 29 28 29 29 28 29 29 29 28 29
70 67 65 62 60 56 53 49 46 44 42 40 37 34 32 29 28 27 27 25 24 23 22 22 22 24 24 25 26 26 27 27 27 27 27 27 27 27 26 27 26 26 26
75 73 71 69 65 60 56 53 50 46 44 41 38 36 33 30 28 27 26 24 23 22 20 20 20 21 22 23 23 25 25 25 24 24 25 25 25 24 23 22 22 23 23
73 75 75 74 71 66 60 56 53 50 46 42 39 37 34 32 29 27 25 24 23 21 19 18 19 20 21 22 23 24 24 24 23 23 22 21 20 19 19 17 18 18 18
56 63 68 71 72 69 65 61 57 52 47 43 40 38 35 32 30 27 25 23 21 20 19 19 20 20 21 22 22 21 22 22 20 19 18 17 16 14 14 13 11 10 10
39 43 49 57 64 66 66 63 60 55 50 46 43 39 36 33 31 27 25 23 21 20 19 19 19 18 19 20 21 20 19 18 17 16 15 14 12 11 9 7 6 6 6
32 33 35 39 45 53 58 59 58 54 50 47 44 41 37 34 31 28 25 22 21 19 18 16 18 18 19 19 18 17 18 17 16 15 14 12 10 9 8 7 6 5 5
30 29 29 30 33 38 45 50 52 52 49 46 44 42 38 34 31 28 24 22 21 18 16 16 16 18 19 18 18 17 17 16 15 13 12 11 10 9 7 6 5 4 3

GEFSMA_500_meanwind_042.txt.gz
Wind_Speed
24 24 24 24 24 24 24 24 24 23 23 23 22 22 22 22 21 21 21 22 23 25 26 25 24 24 24 23 23 23 23 23 22 21 20 19 19 19 19 19 17 16 15
25 24 24 24 24 24 23 23 23 23 22 21 21 21 21 20 20 20 21 22 22 23 24 26 26 26 25 25 25 25 25 26 26 25 24 22 21 20 20 20 20 19 17
25 25 24 23 23 23 22 22 21 21 20 19 18 18 18 18 18 19 19 20 21 22 23 25 27 27 27 26 26 27 27 28 28 28 27 26 25 24 22 21 21 20 19
25 24 23 23 22 22 22 21 20 19 18 16 15 15 15 16 16 16 17 18 19 20 22 24 26 27 28 28 28 28 29 29 30 30 30 30 28 27 25 24 23 23 21
23 23 23 23 23 22 21 20 19 18 17 15 14 14 13 14 15 16 16 17 18 20 21 23 25 27 28 29 30 30 30 31 32 32 33 33 32 31 29 27 26 25 24
22 22 22 23 22 22 21 19 18 18 17 16 15 14 14 14 15 16 17 18 19 20 21 23 25 26 28 30 31 31 31 32 33 33 34 35 35 34 33 31 29 28 27
23 23 23 23 23 22 21 20 19 19 18 17 16 16 16 15 15 16 17 18 20 21 22 22 24 26 28 30 32 32 33 33 33 34 36 36 36 37 36 35 33 32 31
25 25 25 24 23 23 22 21 21 21 20 19 18 18 18 18 17 18 18 20 21 22 23 24 25 26 28 30 32 33 34 35 33 35 35 37 38 38 38 37 37 35 34
25 26 25 25 25 25 24 23 23 23 23 22 21 20 20 19 20 21 21 21 22 23 23 24 25 26 28 29 32 33 34 35 35 35 35 36 38 39 39 38 38 37 36
24 25 26 26 26 26 26 26 25 25 25 25 24 23 22 21 21 22 24 24 23 24 24 25 26 26 28 29 31 32 34 35 35 36 36 36 37 38 40 40 39 38 38
24 25 26 26 26 28 28 28 28 27 27 27 26 25 25 24 23 22 23 26 26 26 25 25 25 26 27 28 30 31 33 34 34 35 36 37 36 37 38 40 39 39 38
29 29 28 28 29 30 31 31 31 30 29 29 28 28 27 27 26 25 24 25 27 28 27 26 25 25 26 27 30 31 32 32 31 32 33 34 36 36 37 38 38 38 38
36 34 33 32 32 33 33 34 34 33 32 32 31 30 30 29 29 28 27 25 25 27 28 28 25 24 25 26 28 29 31 31 30 30 30 30 32 33 34 35 37 37 37
43 42 41 38 38 38 38 38 38 37 36 35 34 33 32 32 31 30 29 27 25 26 28 28 26 23 23 24 26 28 30 30 29 28 27 27 26 28 30 32 32 33 35
48 48 47 46 45 44 44 43 42 41 40 38 37 35 34 34 33 33 31 30 27 25 26 28 26 23 22 23 25 28 29 29 28 28 26 24 24 24 25 27 29 30 31
54 53 52 51 51 50 49 49 48 46 44 42 41 39 37 36 35 34 33 31 29 26 25 26 26 24 22 22 24 27 28 29 28 27 26 25 25 26 27 28 29 29 29
59 58 58 57 56 55 54 53 52 51 49 47 45 43 41 39 36 35 33 32 31 28 25 25 26 24 22 21 23 26 28 29 28 28 27 27 27 27 27 28 28 28 29
64 63 63 62 61 59 58 57 55 54 52 50 48 46 44 41 39 37 35 33 32 29 26 25 25 24 22 21 22 24 26 28 28 28 28 28 28 27 28 28 29 30 30
63 65 66 66 65 64 62 60 58 56 54 51 49 47 46 43 40 38 36 34 33 30 27 26 25 24 22 21 22 23 25 27 28 29 29 29 28 28 28 28 29 31 31
56 60 63 65 67 67 66 64 62 59 56 53 50 48 46 44 41 39 37 35 33 30 28 26 24 23 22 21 21 22 24 25 27 28 28 28 28 27 27 28 28 29 29
44 48 52 56 60 63 65 67 66 63 59 55 52 49 46 44 41 39 38 36 34 31 28 26 24 22 21 20 20 20 21 23 24 25 26 26 26 27 27 26 26 27 27
35 37 40 44 48 53 57 60 63 64 63 59 55 51 47 45 42 40 38 35 33 31 28 25 24 22 20 19 18 19 19 21 23 23 23 24 24 24 25 24 24 25 25
32 32 32 34 37 41 45 50 54 59 61 61 59 54 49 46 44 41 38 35 33 30 28 25 23 22 20 19 18 18 19 20 21 21 22 22 22 21 22 23 22 22 22
33 31 30 30 31 33 36 40 44 49 54 58 59 57 53 48 45 42 39 36 33 30 27 25 23 21 20 19 19 18 19 20 20 20 20 21 20 20 20 20 19 18 19
35 33 31 29 29 29 30 32 36 39 45 51 55 56 54 50 46 43 40 36 33 30 26 24 22 21 20 19 18 18 18 17 17 18 18 18 18 18 17 17 17 16 17
38 35 33 31 29 27 27 27 29 32 37 43 49 51 51 50 47 44 40 36 33 29 25 23 21 20 19 18 17 17 18 18 18 17 17 16 16 17 17 16 16 16 16

GEFSMA_500_meanwind_048.txt.gz
Wind_Speed
32 31 30 28 27 26 25 26 25 25 25 25 24 23 23 22 22 22 21 20 20 20 19 19 19 21 22 24 25 28 27 26 26 24 23 22 22 21 20 19 17 16 15
34 33 31 29 28 27 26 26 25 25 25 24 24 23 23 22 22 22 21 21 21 20 20 19 20 21 22 23 24 25 28 29 29 28 27 25 24 23 22 21 21 19 18
35 34 33 29 28 27 26 25 24 25 24 24 23 23 22 22 21 21 20 20 19 19 18 18 18 19 20 21 23 25 27 28 29 30 30 29 27 26 24 23 23 22 21
33 32 30 27 26 25 25 24 24 24 23 23 23 22 21 21 20 19 18 17 17 17 16 16 17 17 19 20 22 23 26 29 29 31 32 31 30 29 28 26 25 24 23
30 29 29 25 23 23 23 23 23 23 23 23 22 22 21 20 19 18 17 16 15 15 15 15 15 16 17 18 20 22 25 27 29 30 32 33 32 32 31 29 28 26 25
26 25 26 24 22 21 22 22 23 23 23 23 22 22 21 21 20 18 17 15 14 14 14 14 14 15 16 17 19 21 23 26 28 30 31 33 34 33 33 32 31 30 28
22 22 23 23 22 21 21 22 23 23 23 23 23 23 22 22 21 20 18 16 15 14 14 15 15 15 16 17 19 21 23 25 27 30 31 33 34 35 34 34 34 33 32
20 21 22 23 22 23 23 23 24 24 24 25 25 24 24 23 23 21 20 18 17 16 16 16 16 17 17 18 19 21 23 25 27 29 31 33 35 36 36 36 36 36 35
22 22 22 23 23 24 24 25 26 26 27 27 27 27 26 25 25 24 22 21 20 18 17 17 17 18 19 19 20 21 23 25 27 29 31 33 34 35 36 37 36 37 37
26 25 25 25 25 26 26 27 27 28 29 29 29 29 29 27 27 26 25 23 22 21 19 19 19 20 20 20 20 22 24 25 27 29 31 33 34 35 36 36 37 38 38
30 29 29 29 29 29 29 29 30 31 31 32 32 32 31 30 29 29 28 26 25 23 22 22 21 21 21 21 22 23 24 26 28 29 30 31 33 34 35 36 37 39 39
36 35 35 35 34 34 33 33 33 33 34 35 35 35 34 33 32 31 30 29 28 27 25 24 23 23 23 23 23 23 24 26 28 29 30 30 32 33 35 35 36 38 39
43 42 42 42 41 40 39 38 37 37 38 38 38 38 37 36 35 33 32 31 30 29 28 27 25 24 24 24 24 24 24 25 26 28 29 30 31 32 33 34 35 36 38
49 49 49 48 47 46 45 44 43 42 42 42 42 41 41 39 38 36 35 33 32 31 30 29 27 26 25 25 25 24 24 24 25 27 28 29 30 31 33 33 35 35 37
56 55 55 55 54 53 52 50 49 48 47 46 46 45 44 43 42 40 38 36 34 32 31 30 29 27 26 25 24 24 24 23 24 25 26 28 29 29 30 32 33 34 35
60 60 61 60 60 59 58 57 56 55 53 52 51 49 48 47 45 43 41 38 36 34 31 31 30 28 27 25 24 24 24 23 24 25 25 26 27 28 30 30 30 31 32
58 61 62 64 64 64 63 62 61 60 59 58 56 55 53 51 49 47 45 42 39 36 33 31 31 29 28 26 25 24 24 23 23 24 24 25 26 27 29 29 29 29 29
50 54 59 63 65 67 67 67 66 66 65 64 62 60 58 56 53 50 48 45 42 39 36 33 32 31 29 27 26 24 24 23 23 23 24 25 26 27 28 28 29 28 28
41 45 49 54 60 65 68 69 70 70 69 68 67 65 62 61 58 55 52 49 45 42 38 35 33 32 30 28 26 25 24 23 23 23 24 24 25 26 27 27 28 28 28
38 38 41 44 49 55 61 67 71 72 72 72 71 69 66 63 60 58 55 52 48 45 41 37 35 33 31 29 27 26 24 23 23 23 23 24 25 27 28 28 28 28 28
40 38 37 38 40 43 47 53 61 66 70 72 73 72 69 66 62 59 56 53 50 47 43 39 36 34 31 29 28 26 25 24 23 23 23 24 25 26 27 27 28 28 28
42 41 39 37 37 38 39 41 45 53 59 65 69 71 70 68 64 61 57 54 51 48 44 41 38 35 32 30 28 26 25 23 23 22 23 24 25 26 26 27 27 28 28
44 42 41 40 38 37 37 37 38 40 45 52 59 64 67 68 65 62 59 55 51 48 45 42 39 36 33 30 28 26 25 23 22 22 22 23 24 25 26 26 27 28 27
43 43 42 41 40 38 37 35 34 34 36 40 46 53 58 61 62 61 59 55 52 48 44 42 39 37 34 31 28 26 25 24 22 21 22 23 23 24 26 26 26 25 25
41 41 42 40 39 38 37 35 33 32 31 32 36 42 48 52 55 58 57 54 51 48 45 42 39 36 34 31 28 26 24 23 22 22 22 22 23 23 23 23 24 24 24
38 38 40 40 39 38 36 34 33 30 30 30 31 34 39 44 48 51 53 53 50 48 45 42 39 36 33 31 28 26 24 23 22 22 22 22 22 22 21 21 21 22 21

GEFSMA_500_meanwind_054.txt.gz
Wind_Speed
35 36 37 38 38 38 38 36 35 33 32 31 29 28 27 26 26 24 23 23 22 21 21 21 20 19 19 19 20 21 23 24 27 28 27 26 26 24 23 22 21 20 18
35 36 37 38 39 39 40 38 37 35 34 33 31 30 29 28 27 26 25 24 23 23 22 21 21 21 20 20 20 21 21 20 24 27 29 29 28 28 26 25 23 22 21
34 34 35 37 38 40 41 40 38 36 35 34 33 31 30 28 27 26 26 24 23 23 22 21 21 21 21 20 20 21 21 21 21 23 27 29 30 30 29 28 26 25 23
31 32 34 35 37 38 39 39 38 37 35 34 33 32 30 29 27 27 26 25 24 23 22 21 20 20 19 19 19 19 20 21 22 23 26 27 29 31 31 30 28 27 26
31 31 31 32 35 38 39 39 38 37 35 34 34 32 30 29 28 27 26 25 24 22 21 20 19 18 17 17 18 18 18 19 20 22 25 26 27 28 31 32 31 29 28
31 30 29 30 33 36 36 37 38 36 34 33 33 32 31 29 28 27 26 25 23 22 20 19 19 17 16 16 15 16 16 18 19 21 22 24 26 27 28 31 33 32 31
30 28 29 29 30 31 34 36 36 34 34 33 33 32 31 30 29 28 27 25 23 22 20 19 19 17 16 15 15 15 15 16 17 18 20 22 24 26 28 30 32 34 33
30 29 28 28 28 28 31 34 35 35 34 34 33 33 32 30 30 29 28 26 25 23 21 20 19 17 16 15 14 15 15 15 16 17 18 20 23 25 26 27 30 33 34
32 30 29 28 27 29 30 33 34 35 34 33 33 33 32 32 31 30 29 28 26 25 24 22 20 19 17 15 15 14 14 15 15 16 18 19 21 23 26 27 28 31 33
36 33 32 31 30 29 31 33 34 34 33 33 33 33 33 33 33 32 31 30 29 27 26 24 23 21 19 17 16 15 15 16 16 16 18 19 21 22 24 27 29 30 31
39 38 37 35 34 33 32 32 33 34 34 35 34 35 34 35 35 34 34 32 31 30 29 27 25 23 21 19 18 17 17 17 17 17 18 20 21 23 24 25 28 30 32
44 43 43 41 40 39 37 36 35 36 37 37 37 37 37 37 37 37 36 35 34 33 32 30 28 26 24 22 20 19 19 19 18 18 19 20 22 23 25 26 27 29 31
50 49 48 48 47 45 44 42 41 40 40 40 40 39 39 39 39 39 38 38 36 35 34 33 31 29 26 24 22 21 20 20 20 19 20 21 22 23 25 26 27 29 30
53 53 53 53 53 53 51 49 48 47 46 45 44 43 42 41 41 41 41 41 40 39 37 36 34 32 29 27 24 23 22 22 21 21 21 21 21 22 24 26 27 29 30
52 54 55 57 58 59 59 58 56 54 53 51 50 48 47 45 45 44 44 43 43 42 41 39 37 35 32 29 27 25 23 22 22 21 22 22 21 22 23 25 27 28 30
51 52 53 55 58 61 62 63 63 61 60 58 56 54 52 51 49 47 47 47 46 45 44 42 40 37 35 32 29 27 25 24 22 22 22 22 22 22 23 24 25 26 28
52 53 54 55 57 59 62 64 66 66 66 65 64 61 58 55 54 52 50 50 49 48 46 45 43 40 37 35 32 29 27 26 24 23 23 23 22 22 23 23 23 25 26
52 53 54 55 55 57 59 61 64 68 70 70 70 69 66 63 59 57 55 54 52 51 50 48 46 44 40 37 34 31 29 27 25 24 24 23 23 23 23 23 24 25 26
51 52 53 54 55 55 56 58 60 63 67 70 72 72 72 70 67 64 60 58 56 54 52 51 49 47 43 40 37 34 31 29 27 25 24 24 24 23 23 24 24 25 26
51 52 53 53 54 54 54 55 57 59 62 65 69 71 73 73 72 69 64 61 59 58 55 53 51 49 46 42 39 36 34 31 29 27 25 25 24 24 24 24 24 25 25
50 50 51 52 53 53 53 52 53 55 57 59 63 67 70 72 73 72 69 66 64 62 59 57 53 51 48 45 42 39 36 33 31 28 26 26 25 25 25 24 24 25 25
48 48 48 49 51 51 51 50 50 51 52 54 56 60 64 68 71 72 72 69 67 63 62 59 56 53 50 47 44 41 38 35 32 30 28 27 26 25 25 24 24 23 24
44 44 44 45 47 48 49 49 49 48 48 49 50 52 56 61 66 69 71 71 69 66 63 61 58 55 52 49 47 43 40 37 34 30 29 27 26 25 25 24 23 22 23
39 39 40 40 42 44 46 48 47 47 46 46 45 45 47 51 56 61 65 68 70 69 65 61 57 55 52 50 48 45 41 37 35 31 29 28 27 26 25 24 23 22 22
34 35 37 38 39 41 43 45 45 44 44 43 41 40 40 42 46 50 56 61 64 66 67 63 60 55 53 50 47 45 43 39 35 32 30 29 27 26 25 23 23 22 22
29 30 31 34 36 38 41 42 43 42 41 40 39 38 37 37 38 40 44 50 55 58 62 62 58 56 53 49 46 44 42 39 36 33 31 29 27 26 25 23 23 22 22

GEFSMA_500_meanwind_060.txt.gz
Wind_Speed
35 35 36 36 36 36 35 35 36 35 36 35 34 33 34 33 32 32 31 30 28 26 25 24 22 21 20 19 18 18 18 18 20 21 22 22 22 22 21 20 19 17 16
38 38 38 38 37 37 37 37 36 36 35 35 34 33 33 33 32 32 31 30 28 27 26 25 23 22 21 20 19 18 18 18 18 18 20 22 23 23 23 23 22 20 19
40 40 40 39 38 37 37 37 37 36 35 35 35 34 33 32 32 31 31 30 28 28 28 26 24 23 22 21 20 19 18 18 17 17 18 19 21 23 24 24 24 23 22
41 41 40 39 38 37 35 35 37 36 34 34 33 33 33 31 32 31 31 31 29 28 27 26 26 25 23 22 21 20 19 19 18 17 17 19 20 21 23 24 25 25 24
41 41 40 38 37 36 34 34 34 35 34 33 32 32 31 31 32 32 31 30 28 27 27 26 26 25 24 22 21 20 19 18 17 16 16 17 18 20 22 23 25 26 27
42 41 39 38 37 35 34 34 34 34 34 33 34 32 32 33 33 32 31 30 28 27 27 26 26 25 23 22 20 19 18 16 15 15 15 15 16 18 20 20 22 25 27
41 40 40 39 36 35 35 34 33 33 33 33 32 32 32 31 31 32 31 30 29 28 28 27 27 25 23 22 20 18 17 15 14 13 13 14 13 14 17 18 19 20 23
41 41 41 39 37 37 37 35 34 33 32 31 30 30 31 32 31 30 31 30 29 29 29 28 26 25 24 22 20 18 17 15 13 12 12 12 12 12 14 16 17 18 20
42 42 41 40 39 38 37 35 34 33 30 30 31 31 32 34 32 30 30 30 30 30 29 28 26 25 25 23 21 19 18 16 14 13 12 11 11 11 12 14 16 18 19
43 43 43 42 41 40 38 37 36 34 32 33 33 33 32 32 31 30 31 30 30 31 30 29 28 26 26 24 22 21 19 17 15 14 12 11 11 11 11 13 14 16 18
44 44 43 43 42 42 40 40 39 37 36 35 34 33 34 34 33 33 31 30 30 31 31 31 30 28 27 25 24 23 21 19 16 15 14 12 12 12 12 13 14 15 17
46 46 45 44 43 43 42 42 41 40 39 38 37 36 35 35 35 35 34 32 32 32 32 32 32 30 29 28 27 26 24 21 19 17 15 14 13 13 13 13 14 16 17
46 46 47 46 45 45 44 44 43 43 42 41 41 39 38 38 37 37 36 35 35 34 34 34 34 33 32 30 29 29 26 24 21 19 17 15 15 14 14 14 15 16 17
45 45 46 46 46 46 46 46 45 46 45 45 45 43 41 40 38 38 37 37 37 36 36 36 35 35 35 33 32 31 29 27 24 21 19 17 16 16 15 15 15 16 17
46 46 47 47 47 47 47 47 48 48 48 48 48 48 46 43 41 41 39 39 39 37 38 38 37 37 37 35 34 33 32 30 27 24 22 20 18 17 16 16 16 17 17
48 48 48 49 49 48 48 48 48 49 49 50 51 51 50 48 46 44 44 42 41 40 40 40 39 38 38 38 37 36 34 33 30 27 24 22 20 19 17 17 17 17 17
48 49 50 51 51 51 51 51 50 51 51 51 52 53 53 53 51 49 47 46 46 44 43 42 40 40 40 40 40 39 37 36 33 31 27 25 23 20 19 18 17 17 17
50 51 51 52 52 52 52 52 52 52 53 53 53 54 55 56 56 55 53 51 49 48 46 44 42 41 42 41 41 41 39 38 36 33 31 28 25 22 21 20 19 18 18
51 51 51 52 52 52 53 53 53 54 54 54 54 54 55 57 58 58 57 56 54 51 49 48 45 43 43 42 42 42 41 39 37 35 33 30 27 24 22 21 20 19 19
50 51 51 50 51 52 53 53 53 54 54 54 54 55 55 57 59 60 60 59 59 56 53 51 49 47 46 44 43 42 42 41 39 37 34 32 29 26 24 23 21 20 20
49 49 49 49 50 51 52 52 53 53 53 54 54 54 55 56 57 58 59 60 60 58 57 56 52 49 48 46 44 43 42 41 40 39 37 34 31 28 26 24 23 22 21
48 48 47 47 47 47 47 48 49 50 50 51 52 53 54 55 56 57 58 59 59 59 58 57 56 54 52 49 46 44 43 42 41 39 38 36 33 30 28 25 24 23 22
47 46 44 43 42 41 42 43 44 45 46 47 48 50 52 53 55 55 56 57 57 58 58 58 57 55 54 52 49 45 44 42 41 40 39 37 35 33 30 27 25 24 23
43 41 39 37 36 35 36 37 39 41 42 44 45 45 47 49 51 52 54 54 55 56 58 58 58 56 55 54 53 49 45 43 41 40 39 36 35 34 31 28 26 25 24
39 36 33 32 30 30 30 31 33 35 37 39 41 42 42 44 46 48 49 50 52 53 55 55 56 57 55 54 52 52 49 44 43 42 39 37 35 34 32 30 28 26 25
34 31 28 26 25 24 24 26 28 31 32 35 37 39 39 39 41 43 44 46 47 48 49 51 52 52 54 54 52 50 49 45 43 42 40 39 37 35 32 31 29 27 26

GEFSMA_500_meanwind_066.txt.gz
Wind_Speed
30 30 31 31 31 31 31 31 30 30 30 29 29 29 30 30 31 32 32 31 31 31 30 28 26 24 23 21 20 19 18 17 16 16 16 16 16 16 16 15 14 13 12
33 33 33 33 33 33 33 32 32 31 31 30 30 30 30 30 30 32 32 32 32 32 31 30 27 26 25 23 22 21 19 18 17 16 17 17 17 18 18 17 17 16 15
35 34 34 34 33 34 33 33 32 33 32 31 30 31 30 30 30 30 31 32 32 32 31 29 27 26 26 25 24 23 21 19 18 18 18 18 18 18 19 19 19 18 17
37 36 35 35 35 35 34 34 34 33 32 31 31 31 31 30 30 30 30 31 32 32 31 30 29 28 28 27 26 24 22 21 20 19 18 18 18 18 18 20 20 20 19
39 38 36 37 36 36 35 35 34 33 32 31 30 31 31 31 30 29 29 31 32 33 31 31 31 29 29 29 27 26 24 23 21 20 19 19 19 19 19 19 20 20 20
40 39 38 37 37 36 35 35 34 34 33 31 30 30 30 30 30 30 29 31 32 32 32 31 31 30 30 30 29 27 26 25 23 22 21 21 20 20 20 20 20 21 21
41 41 40 39 38 36 35 35 35 35 34 32 31 31 31 30 30 29 29 30 30 31 31 31 31 31 30 30 29 28 28 26 25 23 22 21 20 20 19 19 20 21 21
42 42 41 40 39 38 37 36 36 35 34 33 33 32 32 30 30 29 29 30 30 31 32 31 31 32 31 30 30 29 29 27 26 24 22 21 20 20 19 19 19 20 21
42 42 41 40 40 39 38 38 37 36 36 35 34 33 32 31 30 30 29 30 30 31 32 32 32 33 32 31 31 30 29 27 26 25 23 22 21 19 19 18 18 18 19
42 41 40 40 40 39 39 38 38 37 37 36 36 34 33 33 31 30 30 30 31 32 32 32 33 32 32 32 31 30 30 28 27 25 24 23 22 20 19 18 17 18 18
41 41 40 38 38 38 38 37 37 37 36 37 36 36 34 33 32 32 31 30 30 31 32 32 32 32 33 32 32 32 31 29 28 27 25 24 23 21 20 18 17 17 17
39 39 39 37 37 37 37 37 37 37 37 37 37 36 36 34 33 32 32 32 31 32 32 33 32 32 33 33 33 33 32 31 29 28 27 25 24 22 20 18 17 16 16
37 38 38 37 37 36 36 36 36 37 37 38 38 37 37 37 35 35 34 33 32 32 32 34 33 33 33 34 35 34 33 33 31 30 28 26 24 22 20 18 17 17 16
38 38 38 38 38 37 37 37 37 37 37 38 39 39 38 39 38 37 36 36 35 33 33 34 35 36 35 36 36 36 35 34 33 32 30 28 26 23 21 19 18 17 16
40 40 40 40 40 40 39 39 39 39 38 39 40 41 41 41 41 40 38 39 37 35 35 35 36 37 38 38 38 38 38 36 35 34 32 30 27 25 23 21 19 17 16
41 42 42 43 43 43 43 43 42 42 41 41 41 41 43 43 43 43 43 42 41 39 37 37 37 39 39 40 40 40 39 39 38 36 35 32 30 27 25 23 20 18 17
42 43 43 45 46 46 47 46 46 46 45 45 44 44 44 45 45 45 45 45 45 43 41 39 38 40 40 42 42 42 41 40 40 39 37 35 33 30 27 25 22 20 18
43 43 44 45 46 47 48 48 48 48 48 48 48 47 46 47 47 47 48 48 48 48 45 42 41 41 41 42 44 43 43 42 42 42 40 38 36 33 30 27 25 22 20
43 44 44 45 46 46 47 48 49 49 49 49 50 49 49 49 49 49 50 50 51 51 50 47 45 45 44 44 45 44 43 43 44 43 42 40 38 36 33 30 27 24 22
43 43 44 45 46 47 48 48 49 49 49 50 50 51 51 51 51 52 52 53 53 53 54 52 49 48 47 47 47 46 45 44 44 44 43 42 41 39 36 33 30 27 24
43 44 44 45 45 46 46 47 47 47 48 49 50 51 51 52 52 53 53 54 55 54 55 56 55 52 50 49 49 48 46 45 45 44 44 44 43 41 38 35 33 30 27
41 42 42 42 42 43 43 43 44 44 45 47 48 50 51 52 52 53 54 55 56 56 56 57 57 55 52 51 49 50 48 46 44 44 44 43 44 43 41 38 35 32 29
41 41 41 41 41 40 39 39 40 40 41 43 45 47 49 51 52 52 54 55 57 58 57 56 57 57 55 54 50 50 49 49 47 45 44 43 44 43 42 40 37 34 32
40 40 39 39 38 37 36 35 35 35 35 37 39 42 45 48 51 52 53 55 56 58 58 57 56 56 56 56 53 49 48 49 49 48 45 43 44 43 43 41 39 37 34
39 38 37 37 35 34 32 31 30 29 30 32 34 37 41 44 45 49 51 53 54 56 57 57 57 56 56 56 54 52 50 48 47 48 46 44 44 43 43 42 41 39 36
37 36 36 35 33 31 29 27 26 25 26 28 30 33 37 40 42 44 47 50 52 54 55 56 56 55 55 56 54 52 50 49 48 47 46 45 44 43 42 41 40 39 37

GEFSMA_500_meanwind_072.txt.gz
Wind_Speed
26 27 27 27 27 27 28 27 27 26 27 28 29 28 27 26 25 24 24 24 27 27 29 28 28 28 25 24 22 21 21 19 19 18 18 18 17 16 16 15 14 12 11
28 28 28 28 29 29 29 28 27 29 29 29 29 29 28 27 27 26 26 26 26 28 28 30 29 30 29 27 25 25 24 22 21 20 19 19 19 18 18 17 16 15 13
29 28 29 29 29 30 30 30 29 30 30 30 30 30 30 29 29 28 28 28 27 28 28 29 30 30 31 30 28 27 26 25 24 23 22 20 20 19 19 19 18 17 16
29 30 30 31 31 32 32 31 31 31 31 31 31 31 31 30 30 30 30 30 29 29 29 30 31 31 31 32 31 30 29 28 26 25 24 23 21 21 21 20 20 19 18
31 32 33 33 34 34 33 32 33 32 32 32 32 32 31 32 32 31 31 30 30 30 30 31 31 31 31 32 33 32 31 30 28 27 25 24 23 22 21 21 21 21 20
34 35 35 35 35 35 35 34 35 34 34 34 33 32 32 32 32 32 32 32 31 31 31 31 32 32 33 34 34 34 33 32 31 29 27 26 24 23 22 21 21 21 21
36 37 37 37 37 37 37 37 37 36 36 36 35 33 33 33 33 33 33 33 32 32 32 32 32 34 34 36 36 36 35 34 33 31 29 28 26 25 24 22 22 22 22
38 38 38 38 38 38 38 38 38 38 37 37 36 35 34 34 34 33 33 33 33 32 32 33 33 34 35 36 36 37 37 36 35 33 31 30 28 27 26 24 23 23 23
38 38 38 38 39 39 39 39 39 38 38 38 37 36 35 35 35 34 33 33 32 33 33 32 32 34 35 36 37 38 38 38 36 35 34 32 31 29 28 26 24 23 23
37 37 37 37 37 37 37 38 38 38 38 38 38 37 36 36 36 35 34 34 33 32 32 33 33 34 36 37 37 37 37 38 38 37 36 34 32 31 29 27 25 24 23
36 36 36 35 35 35 35 36 36 37 37 37 38 37 37 37 36 36 35 35 34 33 33 33 33 34 35 36 38 37 37 37 37 37 36 35 33 32 30 28 26 24 23
34 35 35 35 35 36 36 36 36 37 37 37 38 38 38 38 37 36 36 36 35 35 35 35 34 35 36 37 37 38 38 37 37 38 37 36 35 33 31 29 27 25 23
35 35 36 36 36 37 37 37 37 37 37 37 37 38 38 38 39 38 37 37 37 37 36 36 36 36 36 37 37 38 39 39 39 39 39 37 35 34 32 30 28 26 24
36 36 37 37 38 37 38 38 38 38 37 37 37 38 38 38 39 39 38 38 38 38 38 37 37 38 38 37 38 39 39 40 40 40 39 38 36 34 32 31 29 27 24
36 37 38 38 39 39 39 38 38 39 39 38 38 38 38 39 39 39 39 39 39 39 38 38 37 38 39 39 38 39 39 40 41 41 40 39 37 36 33 32 30 28 25
38 38 39 39 39 39 39 38 38 39 40 40 40 41 41 41 40 40 40 41 41 41 39 39 39 39 41 41 41 40 40 41 41 42 41 40 39 37 35 33 31 29 26
39 39 39 39 39 38 38 39 39 39 40 41 42 43 43 43 43 43 42 43 44 43 42 41 41 41 41 42 42 41 41 43 43 42 42 41 40 38 36 34 32 30 27
40 40 39 39 39 39 39 39 39 40 40 41 42 43 44 45 45 45 45 44 45 46 44 44 43 43 43 44 43 42 42 43 43 42 42 43 41 40 38 36 34 31 29
40 40 40 39 39 38 39 39 40 40 41 41 42 43 44 45 46 46 47 47 47 48 47 47 46 45 45 45 45 43 44 44 44 44 44 44 43 41 40 38 35 33 30
41 40 40 39 38 39 39 40 40 40 41 41 42 43 44 46 47 47 48 48 49 49 49 49 50 48 48 47 47 45 45 46 45 45 45 45 44 43 41 40 38 35 32
41 40 39 39 39 39 39 40 40 40 40 40 41 42 44 45 47 48 48 49 51 51 51 51 51 51 50 49 49 47 46 47 47 47 46 46 45 44 43 42 40 37 35
41 40 39 39 39 39 39 39 40 39 40 40 41 41 43 44 46 48 49 50 52 52 53 53 53 52 53 51 50 50 49 48 47 48 48 48 47 46 45 43 42 39 37
41 41 40 39 39 39 39 39 39 38 38 38 39 39 40 42 44 46 48 50 52 52 53 55 56 55 55 54 52 52 51 50 49 49 49 49 48 48 47 45 43 41 39
41 40 39 39 38 38 38 38 37 36 35 35 36 36 37 39 41 44 46 49 51 53 53 55 57 57 57 56 56 53 52 53 53 52 51 50 49 48 47 46 45 43 41
41 40 39 39 38 37 36 36 35 33 33 33 33 34 35 36 39 42 45 47 50 52 53 55 58 59 59 58 57 56 54 54 55 53 52 50 49 48 48 48 47 44 43
41 40 39 38 36 35 35 34 33 31 30 30 31 32 33 34 37 40 42 44 47 50 53 54 57 59 59 59 58 57 57 54 54 54 53 51 49 48 47 46 46 45 43

GEFSMA_500_meanwind_078.txt.gz
Wind_Speed
23 25 26 27 27 26 25 25 24 24 24 23 23 24 22 23 23 23 23 23 24 24 26 27 26 27 28 28 27 26 25 24 23 21 20 20 19 18 17 16 15 14 12
24 24 24 25 25 25 25 26 25 26 26 26 25 25 24 23 24 24 25 25 25 25 26 27 28 27 29 30 29 29 28 28 27 25 23 22 21 21 20 19 18 16 15
23 25 25 24 25 25 25 26 26 26 27 27 26 27 27 26 26 26 26 27 28 27 27 28 29 29 29 30 31 32 32 31 29 28 27 25 24 23 22 21 20 19 17
24 25 26 25 25 26 26 26 27 28 28 28 27 28 28 29 29 28 29 29 29 29 29 30 30 31 31 32 33 33 34 34 32 31 30 29 27 26 25 23 22 21 20
25 25 26 26 26 27 28 28 28 29 29 29 29 29 29 30 31 31 30 30 30 31 31 31 32 33 33 33 34 35 36 36 35 33 32 31 30 28 27 26 24 23 22
27 27 27 27 28 29 29 29 30 31 32 32 32 32 32 32 33 33 33 33 32 32 33 33 33 34 34 35 35 36 38 38 38 37 35 34 32 31 29 28 26 25 24
27 28 28 28 29 30 30 31 31 32 33 33 33 34 34 34 35 35 35 35 35 34 34 34 34 35 35 36 37 37 39 39 40 40 38 36 35 33 31 30 28 27 26
28 28 29 29 29 30 31 31 32 33 33 34 34 35 35 36 37 37 37 37 37 36 36 35 35 35 36 38 38 38 39 40 40 41 41 39 37 36 34 32 30 29 28
29 29 29 29 30 30 30 31 32 32 33 34 34 35 36 37 37 37 38 39 39 39 38 37 36 37 36 38 39 40 40 41 41 42 42 42 39 38 36 34 32 31 29
29 29 29 30 30 31 31 31 32 33 33 34 34 35 36 36 37 37 38 39 40 40 40 39 38 38 37 38 40 40 40 41 41 42 42 42 42 40 38 36 34 32 31
28 29 29 30 30 31 31 32 33 34 34 35 35 36 36 37 37 38 39 39 40 41 41 40 40 39 39 39 40 41 41 41 42 42 43 43 43 42 41 38 36 34 32
28 28 29 30 31 32 32 33 34 35 35 36 37 37 38 38 38 39 39 40 41 41 42 41 41 41 40 40 40 41 41 41 42 42 43 44 43 43 43 41 39 36 34
29 29 30 31 32 33 34 34 35 36 37 37 38 39 39 39 39 40 40 41 42 42 42 42 42 41 41 41 41 41 41 42 42 43 44 45 43 42 43 41 40 38 36
30 30 31 32 33 34 35 35 36 37 37 38 39 40 40 40 40 41 41 41 42 43 44 43 43 43 42 42 42 42 41 41 42 43 44 45 44 43 42 41 41 39 37
31 32 33 34 35 36 36 37 37 38 38 39 40 40 41 41 41 41 41 42 42 43 44 44 43 43 43 42 43 42 41 41 42 43 43 44 44 42 42 42 42 40 37
33 34 35 36 37 37 37 37 38 38 39 39 40 40 40 41 42 42 42 42 42 43 44 45 45 45 44 43 43 43 42 40 41 43 42 44 44 43 42 42 42 41 38
36 36 37 37 38 38 38 38 38 39 39 39 40 40 40 41 42 42 43 43 43 43 43 44 45 45 45 44 42 43 43 41 41 42 42 43 43 43 42 41 41 41 39
38 39 39 39 38 38 38 38 39 38 38 38 39 39 40 41 41 42 43 44 44 44 44 45 45 45 45 45 43 43 44 44 43 43 43 43 43 43 43 42 41 41 40
40 40 40 39 39 39 39 39 38 38 38 38 39 39 40 40 41 42 43 44 45 45 45 46 46 46 46 46 44 44 44 44 45 45 43 44 44 43 43 43 43 42 40
42 41 41 40 39 39 39 39 38 38 38 38 38 39 40 41 41 42 43 44 45 46 46 47 47 47 47 47 46 45 44 43 44 46 44 44 44 44 44 44 44 43 42
42 42 41 40 39 39 38 38 37 37 36 36 37 38 39 41 42 43 44 45 45 46 47 48 48 48 48 48 48 46 45 44 43 45 45 45 44 45 46 45 45 44 43
43 42 41 40 39 38 38 37 36 35 35 35 35 36 37 38 40 42 43 45 47 47 48 49 50 50 50 49 50 49 47 46 45 44 46 46 45 44 47 47 46 46 44
42 41 40 38 37 37 37 36 35 34 34 34 34 35 36 36 38 40 42 43 44 46 48 49 50 51 51 51 51 50 51 48 47 46 46 47 47 47 47 48 48 48 46
41 40 39 37 36 36 35 34 34 33 33 33 34 34 35 36 37 38 39 41 42 44 47 49 50 51 51 52 53 51 51 50 49 48 47 47 47 47 47 48 48 47 46
40 39 38 37 36 35 34 33 33 32 32 32 33 33 34 35 36 37 38 38 39 41 44 47 49 51 52 52 54 53 53 52 49 48 48 47 47 47 47 48 49 48 47
40 38 37 36 35 34 34 33 32 31 31 30 30 31 31 32 34 34 35 37 37 39 42 45 47 50 52 53 54 55 53 52 51 50 48 47 47 48 48 48 49 48 47

GEFSMA_500_meanwind_084.txt.gz
Wind_Speed
22 23 22 22 21 20 20 21 23 24 25 26 25 24 22 22 22 22 21 20 21 23 23 24 24 24 24 24 23 22 22 21 20 19 18 17 16 15 14 13 12 11 9
21 21 21 21 21 21 22 23 23 23 23 25 25 24 25 25 24 24 24 23 23 23 23 24 25 25 25 26 26 25 25 24 23 22 21 20 19 18 17 16 15 13 12
21 22 21 21 22 23 24 24 24 24 23 23 24 25 25 25 25 25 25 25 24 23 24 24 25 26 25 27 27 26 26 27 26 25 24 23 22 21 20 18 17 16 15
22 22 23 23 23 23 24 25 25 24 24 24 24 24 25 25 25 25 26 26 26 26 26 26 26 27 27 26 28 27 27 27 28 27 27 26 25 24 23 21 20 19 18
22 23 23 23 23 24 24 24 24 24 24 25 25 25 25 25 25 26 26 27 28 28 27 28 27 28 29 28 28 29 28 28 29 30 30 29 28 27 26 24 23 22 20
22 23 24 23 24 24 24 24 25 25 26 26 27 27 27 26 27 27 27 28 29 29 29 29 29 29 30 30 30 30 31 30 30 30 32 32 31 30 29 27 26 24 23
22 23 24 24 24 24 25 25 25 26 26 27 27 28 28 28 29 29 29 29 29 30 31 31 31 30 30 31 31 31 31 32 32 31 32 33 33 32 31 30 29 27 26
22 23 23 24 25 25 25 25 26 26 27 27 28 28 29 30 31 30 31 31 31 31 32 33 33 32 32 32 32 33 33 33 33 34 34 35 35 35 34 33 32 30 29
22 23 24 24 25 25 25 25 26 26 27 28 28 28 29 29 31 31 31 31 32 32 33 34 34 35 34 34 34 34 34 34 35 36 35 36 37 37 37 35 35 33 31
23 23 24 25 25 25 26 26 27 27 28 28 29 29 29 30 31 31 32 32 32 32 33 35 35 35 36 36 35 35 35 36 36 37 37 37 38 39 39 39 37 36 34
24 24 24 25 26 26 27 27 28 29 29 30 31 31 31 32 32 32 33 33 33 33 34 35 36 37 37 37 37 37 36 37 37 37 38 37 38 39 40 40 39 38 37
25 25 25 26 27 28 28 29 30 30 31 32 32 33 33 33 33 34 34 34 35 35 36 36 36 37 38 38 38 38 38 38 38 39 39 39 39 39 40 41 41 41 39
27 27 27 28 29 29 30 31 32 33 33 34 34 35 35 35 35 36 36 36 36 36 37 37 38 38 38 40 40 39 40 40 40 39 39 39 39 39 40 42 42 42 41
29 30 31 31 32 33 34 34 35 35 36 36 36 37 37 37 37 37 38 38 38 38 38 39 39 39 39 40 41 40 40 41 41 40 39 39 39 40 40 42 42 42 43
32 32 33 34 35 35 36 36 37 38 38 38 38 38 39 39 39 39 39 40 40 39 39 40 41 40 40 41 41 40 40 40 41 41 41 40 40 40 40 41 42 43 44
33 34 35 36 36 37 38 38 38 39 39 39 40 40 40 40 40 40 40 41 41 41 40 40 42 42 42 42 42 41 40 40 40 41 41 41 40 41 41 41 41 42 43
34 35 36 37 37 38 38 38 38 39 39 39 39 39 40 40 40 41 41 41 41 41 41 40 42 42 42 42 42 42 41 41 41 41 41 41 40 40 40 42 42 42 43
36 37 37 38 38 39 38 38 38 37 37 37 37 38 38 39 40 41 41 41 41 41 41 41 41 42 41 41 42 42 42 42 41 41 41 41 40 40 40 41 42 43 43
38 38 39 39 39 39 38 38 37 36 35 35 35 36 36 37 38 39 40 41 41 41 41 41 41 41 42 42 41 42 42 43 42 42 42 41 41 41 41 41 42 42 42
39 40 40 40 40 39 38 37 36 35 34 34 34 35 35 36 36 37 38 39 40 40 40 41 41 41 41 42 42 41 42 43 43 42 42 41 40 41 41 41 41 42 42
41 41 41 40 40 39 38 36 36 35 34 34 34 34 34 34 34 35 37 38 39 39 40 40 40 41 41 41 42 42 41 42 43 42 42 42 41 41 42 41 40 41 41
42 42 42 41 40 40 38 37 35 35 34 33 33 33 33 33 33 34 35 36 38 38 39 40 40 41 41 41 42 42 41 41 42 42 42 42 41 41 41 41 40 41 42
43 43 42 41 40 39 38 37 36 35 34 33 33 33 33 33 32 33 33 35 36 38 39 40 40 40 41 41 42 42 42 42 42 42 43 42 41 40 41 41 42 42 43
44 43 42 41 39 38 37 37 36 34 33 32 32 32 32 32 32 33 33 34 35 37 39 40 40 41 42 42 42 42 43 42 42 42 43 42 41 40 40 41 43 43 42
44 43 42 40 39 38 38 37 35 33 31 31 32 32 31 31 32 33 33 34 35 37 38 39 39 40 41 42 42 42 43 43 42 42 42 42 42 42 41 40 41 43 43
45 43 42 40 39 39 38 36 34 32 31 31 32 31 31 31 31 31 31 32 32 34 35 36 37 38 40 41 42 42 42 43 43 43 42 41 41 42 41 41 40 41 42

GEFSMA_500_meanwind_090.txt.gz
Wind_Speed
15 15 16 16 17 18 17 17 17 17 18 19 21 21 21 22 22 22 21 20 20 20 20 20 21 21 20 20 20 19 18 18 17 16 15 14 13 13 12 11 10 10 9
15 14 15 15 16 17 17 17 17 17 18 19 20 21 22 23 23 23 24 23 22 21 21 21 21 22 22 22 22 22 21 21 20 18 18 17 16 15 14 14 13 12 11
14 14 14 14 14 15 16 17 17 18 18 19 20 21 21 22 23 23 24 24 24 24 24 24 22 23 24 24 24 24 24 23 22 22 21 20 19 18 17 16 16 15 13
13 13 14 14 14 15 16 17 17 18 19 20 21 21 21 22 22 22 23 24 24 25 25 24 24 24 25 26 26 26 25 26 25 24 24 23 22 21 20 19 18 17 16
13 13 14 14 15 16 17 17 18 19 19 20 21 21 22 22 22 22 23 24 24 25 25 24 25 25 26 27 28 28 28 27 27 27 26 26 25 24 23 22 21 20 19
13 13 13 14 15 16 16 17 18 18 19 20 20 21 22 23 23 23 24 25 25 25 25 25 26 27 28 28 28 28 29 29 28 28 27 27 27 27 26 25 24 22 21
13 13 14 14 15 16 16 17 18 18 19 19 20 21 22 23 24 25 25 26 26 26 27 27 27 28 29 29 30 29 30 31 30 30 30 29 29 29 29 28 27 26 24
13 13 14 14 15 15 16 17 18 18 18 19 19 21 22 24 24 25 26 27 28 28 29 29 29 29 30 31 31 32 31 32 32 32 32 32 31 30 30 31 30 28 27
12 13 14 15 15 16 17 17 18 19 20 20 20 21 22 23 25 26 26 27 28 29 30 31 31 31 31 32 33 33 33 33 33 33 34 34 33 33 32 32 32 31 30
13 14 16 16 17 18 19 19 20 21 22 23 23 24 24 24 25 26 27 28 28 30 31 32 32 33 33 33 33 35 34 34 34 34 35 36 36 35 34 34 34 33 33
15 17 18 19 20 21 22 22 23 23 24 25 26 27 27 27 28 28 29 30 30 30 31 32 34 34 34 34 35 35 36 36 36 36 36 37 38 38 36 36 35 35 35
17 19 20 21 22 23 24 24 25 26 27 27 28 29 30 31 31 30 31 32 32 33 33 33 34 35 36 36 36 37 37 38 39 39 38 38 38 38 38 38 38 38 37
19 21 22 22 23 24 25 26 27 28 29 29 30 31 32 33 34 34 34 34 34 35 35 35 36 37 37 38 38 39 39 40 41 41 41 40 39 39 39 38 39 39 39
21 22 23 24 25 26 26 27 28 29 30 31 31 32 33 34 35 36 36 36 37 37 37 37 37 38 38 38 39 40 40 41 42 42 42 42 41 41 41 40 39 39 39
23 25 26 27 27 28 29 29 30 31 31 31 32 32 33 35 36 37 38 38 39 39 39 40 40 40 40 40 40 41 41 42 43 43 43 43 43 42 42 41 40 39 39
25 27 28 29 30 30 31 31 32 32 32 32 32 33 33 34 35 36 37 38 39 39 39 41 42 42 42 41 41 41 42 43 43 44 44 44 43 44 43 42 42 41 40
27 29 30 31 32 33 33 33 33 33 33 33 33 33 33 33 33 34 35 36 37 38 38 40 43 43 43 43 43 43 43 44 45 45 45 45 45 44 44 43 43 43 42
29 30 32 33 33 34 35 35 35 35 34 34 34 33 33 32 32 33 33 34 35 36 37 37 40 43 44 44 43 43 44 45 46 46 46 46 46 45 45 45 44 44 43
30 32 33 34 35 35 36 36 35 35 34 34 33 33 33 32 32 33 33 33 33 34 35 36 38 41 42 43 44 44 45 45 46 46 47 47 47 47 46 46 45 45 44
32 33 35 36 36 36 36 36 35 35 34 34 34 34 33 33 33 33 33 33 33 34 35 35 36 38 40 42 43 43 44 45 46 47 47 48 48 47 47 46 46 45 45
34 35 36 36 37 37 37 36 35 35 35 35 35 35 34 33 33 32 33 33 34 34 34 34 35 36 38 40 42 42 43 44 45 47 47 47 48 48 48 48 47 46 45
35 36 37 37 38 38 37 36 36 35 35 35 35 35 34 33 32 32 32 33 33 33 34 34 34 35 36 39 41 42 42 43 44 46 47 47 48 48 48 48 47 47 47
36 37 37 38 39 39 38 38 37 36 35 35 35 34 34 33 32 32 31 32 33 33 33 33 34 35 36 38 40 41 43 43 44 45 45 46 47 48 48 48 47 47 47
36 37 38 39 39 39 39 38 37 36 36 35 35 34 33 33 32 32 32 32 32 33 34 34 33 34 36 37 39 40 41 42 43 44 45 45 46 47 48 48 48 47 47
38 39 40 40 40 40 39 38 38 37 36 36 35 34 33 32 32 31 31 31 31 33 34 34 33 34 35 36 37 39 40 41 42 43 44 44 45 47 48 48 48 47 47
40 41 41 41 41 41 40 40 39 38 37 36 35 34 33 32 32 31 30 30 31 32 32 33 32 33 34 36 37 38 39 41 41 42 43 43 44 46 46 48 48 48 47

GEFSMA_500_meanwind_096.txt.gz
Wind_Speed
14 15 15 14 15 15 15 15 15 16 16 16 16 15 15 16 17 17 18 18 18 19 18 18 18 19 19 19 20 20 19 19 18 17 16 15 14 13 12 11 10 9 8
14 14 15 14 14 14 14 14 15 15 15 15 15 15 15 16 16 17 17 18 19 20 20 20 19 19 20 21 21 21 21 21 21 20 18 17 16 16 14 13 12 11 10
13 13 14 14 14 14 14 14 15 14 15 14 15 15 16 16 16 17 17 18 18 20 20 21 20 21 21 22 22 23 23 23 23 22 21 20 19 18 17 16 15 14 13
12 12 12 12 13 14 14 14 14 15 15 16 16 17 17 18 18 18 19 19 19 19 20 21 21 21 23 24 24 24 25 24 25 25 24 23 22 21 20 19 18 17 16
10 10 11 12 12 13 14 14 15 15 16 16 17 18 18 19 19 19 20 20 20 20 21 22 22 23 24 25 25 25 26 27 27 27 27 26 25 24 23 21 21 20 19
10 10 11 11 12 12 13 14 14 15 16 17 18 18 19 19 20 21 21 21 22 22 22 23 23 24 25 25 26 27 27 28 28 29 28 28 28 27 26 25 24 22 21
9 10 11 11 12 12 13 13 14 15 16 17 18 18 19 20 20 21 21 22 22 23 24 24 25 26 26 26 27 28 28 29 29 29 30 30 30 29 29 28 27 26 24
8 9 10 11 11 12 13 14 15 16 17 17 18 19 20 21 21 22 22 22 23 23 24 25 26 27 28 28 29 30 30 29 29 29 31 31 32 32 31 30 30 29 28
9 9 10 11 12 13 14 15 16 17 18 19 19 20 21 22 23 23 23 24 24 24 25 26 27 28 29 30 31 31 31 31 31 31 32 33 33 34 33 32 31 31 31
8 9 10 12 13 13 14 15 17 18 19 19 20 21 22 23 24 25 26 26 27 27 27 28 28 29 30 31 32 33 34 34 34 34 34 34 34 34 35 34 34 33 32
8 9 11 12 13 14 16 16 17 18 19 20 21 22 23 24 25 26 27 28 28 29 29 30 30 31 32 33 33 35 35 36 36 36 37 37 36 36 37 36 36 35 34
9 10 12 14 15 16 17 18 19 20 21 22 22 23 24 25 26 27 28 30 30 31 31 32 32 33 33 34 35 36 37 37 38 38 39 39 39 38 38 38 38 38 37
10 12 14 16 17 18 19 20 21 22 22 23 24 24 25 25 26 27 28 30 31 32 33 34 35 35 36 36 37 38 38 39 40 40 40 40 41 40 40 39 40 40 40
11 14 16 17 18 19 20 21 23 23 24 25 25 26 26 26 26 27 27 28 30 32 34 35 36 36 37 38 39 39 40 40 41 42 42 42 42 42 42 42 41 41 41
14 16 18 19 20 21 23 24 24 25 25 26 27 27 27 27 27 27 28 28 29 30 33 35 37 38 38 39 40 41 41 42 43 44 44 44 44 43 44 44 43 43 42
16 18 19 21 23 24 25 26 26 26 27 28 28 29 29 29 28 28 28 29 29 30 31 34 37 38 39 40 41 42 43 44 44 45 45 46 46 45 45 46 46 45 44
18 20 22 23 25 25 26 27 28 28 29 30 30 30 30 29 29 29 29 30 30 30 30 32 35 37 38 39 40 42 44 45 45 46 47 47 47 47 47 47 47 46 46
20 22 24 25 26 27 28 28 29 30 30 31 31 31 31 31 31 30 30 31 31 31 31 31 34 36 37 38 39 40 42 44 46 47 48 48 48 49 48 48 48 47 47
22 24 26 27 27 28 29 30 30 31 32 32 32 32 32 32 32 32 32 32 32 32 31 31 33 35 36 38 38 39 40 43 45 46 48 49 49 50 50 49 49 49 48
25 27 28 28 29 30 31 31 32 33 33 33 33 33 33 33 33 33 33 33 33 32 32 32 32 34 36 37 38 38 39 41 43 46 47 49 50 50 51 51 50 50 50
27 29 29 30 31 32 33 33 34 34 34 35 35 35 35 35 34 34 34 33 33 33 33 33 32 33 35 37 38 38 38 40 41 44 46 48 49 50 51 51 51 51 51
29 30 32 33 33 34 34 34 35 35 36 36 36 37 36 36 35 35 34 34 34 33 33 33 33 33 34 36 38 38 38 39 40 42 45 47 49 50 51 51 51 52 51
31 32 33 34 35 35 36 36 36 36 37 38 38 38 37 37 36 35 34 34 34 34 34 33 33 33 34 35 37 37 38 38 39 41 43 45 48 49 50 51 52 52 52
33 34 35 36 36 37 37 37 37 37 38 39 39 38 38 38 37 36 35 35 35 34 34 33 32 33 34 35 36 37 38 39 39 41 42 44 46 48 50 51 51 52 52
35 36 37 37 37 38 38 39 39 39 40 40 40 40 39 38 37 36 36 35 35 35 34 33 32 32 33 35 36 36 37 38 39 40 42 43 45 47 48 50 51 52 52
36 37 38 38 39 39 40 41 41 41 42 42 42 41 40 39 38 38 37 36 35 34 35 34 33 33 33 34 35 36 36 37 37 38 41 43 44 46 47 49 51 52 52

GEFSMA_500_meanwind_102.txt.gz
Wind_Speed
9 9 10 10 9 8 8 8 8 8 8 9 9 10 11 12 12 13 14 14 14 15 16 17 19 19 19 19 19 21 20 20 19 18 17 16 15 15 14 13 12 11 10
8 9 9 9 8 9 9 9 8 8 8 9 9 10 10 11 12 13 14 15 15 15 16 17 19 19 20 21 20 21 22 23 22 21 20 19 18 17 16 15 14 13 12
8 8 8 8 8 9 9 9 8 8 8 8 9 9 10 11 12 13 14 15 16 16 16 17 19 20 20 20 21 22 23 23 24 24 23 22 21 20 19 18 17 16 15
7 7 7 7 7 7 7 7 8 8 8 9 9 10 11 11 13 14 15 16 16 17 18 18 19 20 21 21 21 23 24 24 24 26 27 26 25 23 22 21 20 19 18
5 5 5 6 6 6 7 7 8 8 9 9 10 11 11 12 13 14 15 16 17 18 19 19 20 20 21 21 22 23 23 25 25 26 28 29 28 27 26 25 23 22 21
4 4 4 5 6 6 7 7 8 8 9 10 11 11 12 13 14 14 15 16 17 18 19 20 21 21 22 22 22 23 25 25 27 27 27 28 29 30 29 28 27 25 24
3 3 4 5 5 6 7 7 8 9 10 11 12 13 13 14 15 15 16 17 17 19 20 21 22 23 24 24 24 24 26 27 27 29 28 29 30 31 32 32 31 29 27
2 3 3 5 5 6 7 8 9 10 11 12 13 13 14 14 15 16 17 18 19 20 21 21 22 23 24 25 25 25 27 28 29 29 29 30 30 31 32 33 33 32 31
2 3 4 5 6 8 8 9 10 10 11 12 13 14 15 15 16 17 18 19 20 21 22 23 23 24 25 26 26 26 28 29 29 29 29 30 31 31 32 33 34 34 33
2 3 4 5 7 8 9 10 10 11 12 13 13 14 15 16 16 17 18 19 20 21 22 23 24 25 26 27 28 28 29 30 31 31 31 30 32 32 32 33 34 35 36
3 3 4 6 8 9 10 10 11 12 13 13 14 15 16 17 18 19 20 20 21 22 23 24 25 26 27 28 29 30 31 31 32 32 33 33 33 34 34 33 35 35 37
4 4 5 7 9 9 10 11 12 13 14 15 16 16 17 17 18 19 20 21 22 23 24 25 26 27 28 29 31 31 32 33 33 34 35 35 35 35 35 34 35 36 37
5 6 7 8 9 9 11 12 13 14 15 16 17 18 18 18 19 20 21 22 23 24 24 25 26 27 28 30 31 33 34 35 35 36 36 37 37 37 38 38 37 37 38
7 8 9 9 10 11 13 14 15 15 16 17 18 19 19 20 20 21 22 23 24 25 26 26 26 27 28 30 32 33 35 36 37 37 37 38 39 39 41 41 40 40 40
9 10 11 11 13 14 15 16 16 17 18 19 20 20 21 21 22 22 23 23 24 25 26 27 27 27 28 29 31 33 34 36 38 39 39 40 40 41 41 43 43 42 42
12 12 13 14 15 16 17 18 19 19 20 21 21 22 22 23 23 24 24 25 25 26 26 28 29 29 29 29 30 32 34 35 37 39 41 42 42 43 43 44 45 44 44
15 16 16 17 18 19 19 20 20 21 22 23 23 23 24 25 25 25 25 25 26 27 27 28 30 30 30 31 31 31 33 35 37 39 40 42 44 44 45 45 46 46 47
18 19 19 20 20 21 22 22 22 23 23 24 25 25 25 26 26 26 27 27 27 28 28 29 30 31 31 31 31 32 33 34 36 38 39 42 43 45 46 46 46 47 48
21 21 22 22 23 23 24 24 24 25 26 26 26 27 27 27 28 28 29 29 29 29 29 29 30 31 32 32 32 32 32 33 35 36 38 40 42 44 45 47 47 48 48
23 24 24 25 25 26 26 26 27 27 27 28 28 28 29 29 29 30 30 31 31 31 31 31 31 32 33 33 33 33 33 33 34 35 37 39 40 42 44 46 47 48 49
25 26 26 27 27 28 28 28 28 29 29 29 29 30 30 31 31 32 32 32 33 33 33 33 33 33 34 34 34 34 34 34 34 35 37 38 40 41 43 45 46 47 48
27 27 28 29 29 29 30 30 30 31 31 31 31 31 32 32 33 33 34 34 34 34 34 34 33 34 34 35 35 35 35 35 35 36 37 38 39 40 42 43 45 46 47
29 30 30 30 30 30 31 32 32 32 32 33 33 33 34 34 35 35 35 35 35 36 36 36 35 35 35 36 36 36 36 36 36 36 37 37 38 39 41 42 43 45 47
30 31 31 32 32 32 32 33 34 34 34 34 35 36 36 36 37 37 37 37 37 37 37 37 36 36 36 37 37 37 37 36 36 36 37 37 38 39 40 41 42 43 45
31 32 32 33 33 33 34 35 36 37 36 36 37 37 38 38 38 39 39 39 38 38 38 38 37 37 37 37 38 38 38 38 37 37 38 38 38 39 39 40 41 42 44
34 34 35 36 35 35 36 37 39 39 39 39 39 40 40 40 40 40 40 40 40 40 40 39 39 38 38 38 38 38 38 39 38 37 38 39 39 40 40 40 41 42 43

GEFSMA_500_meanwind_108.txt.gz
Wind_Speed
9 8 8 7 6 6 6 6 6 6 6 6 7 8 9 10 10 10 11 12 13 13 13 13 12 13 15 15 15 16 17 17 17 17 16 15 14 13 12 11 10 9 8
8 7 6 6 5 5 6 6 6 5 5 5 5 6 8 9 10 10 11 11 12 13 13 14 14 14 15 16 17 17 18 19 20 19 19 19 17 16 15 14 13 11 10
7 7 6 6 6 6 6 6 5 5 4 4 5 6 7 7 9 9 10 11 12 13 14 14 14 15 15 16 17 19 18 19 21 21 21 22 21 20 18 17 16 15 13
7 6 5 5 5 5 5 5 4 4 4 5 5 6 7 7 9 10 11 11 12 13 14 14 15 15 16 16 17 17 18 19 20 22 23 23 23 22 22 21 19 18 17
4 4 3 3 3 3 4 4 4 4 5 5 5 6 7 8 9 10 11 12 13 14 14 15 15 16 17 18 18 18 18 19 20 21 23 23 24 24 24 24 23 22 20
3 2 2 2 3 3 4 5 5 5 5 6 7 7 8 8 9 10 11 12 13 13 14 15 16 17 17 18 18 19 19 19 20 21 23 24 24 25 26 26 25 24 24
3 1 1 2 3 4 5 6 6 6 6 7 7 8 8 8 9 10 10 11 12 13 14 15 15 16 17 18 18 19 19 20 21 21 22 24 25 25 26 27 27 27 26
2 1 1 2 3 4 5 5 6 7 8 8 8 8 8 9 10 10 11 12 12 13 15 15 16 16 17 18 19 20 20 20 21 22 23 24 25 25 25 27 28 28 28
2 2 1 2 3 4 5 6 7 8 8 8 9 9 10 10 11 11 12 12 13 13 14 15 16 17 18 18 19 20 21 21 21 21 22 23 25 26 27 27 28 30 29
3 3 2 2 3 4 5 7 8 9 9 9 10 10 11 12 12 12 13 13 14 14 15 16 16 17 18 19 20 20 21 22 23 23 23 24 24 25 26 28 29 29 30
4 3 3 3 4 6 6 8 9 10 10 10 11 11 12 13 14 14 14 14 14 15 16 17 17 18 19 20 21 21 22 23 23 24 24 24 25 25 25 26 28 29 31
5 5 5 5 6 7 8 9 10 11 11 12 12 13 14 14 15 15 15 16 16 16 17 18 18 19 20 20 21 22 23 24 24 25 25 26 27 27 27 27 28 29 30
6 7 7 8 8 9 10 11 12 13 13 14 14 15 15 16 16 16 17 17 18 18 18 19 19 20 21 21 22 22 23 24 25 26 27 27 28 29 29 30 30 30 30
8 9 10 11 11 12 12 13 14 15 16 16 16 17 17 17 18 18 19 19 19 20 20 20 20 21 21 22 22 23 23 25 26 27 27 28 28 29 30 31 32 32 33
11 12 12 13 14 15 15 16 17 17 17 18 19 19 20 20 20 20 21 21 21 21 21 21 21 22 22 23 23 24 24 25 26 27 28 28 29 30 31 32 33 34 34
13 14 15 16 17 18 18 19 19 19 20 20 21 21 22 22 22 22 23 23 23 23 23 23 23 23 23 24 24 24 25 25 26 27 28 29 30 31 32 33 34 35 35
16 17 17 18 19 20 21 21 21 21 22 22 23 23 23 24 24 24 24 24 25 25 25 25 26 25 25 25 25 25 26 26 27 27 28 29 30 31 32 34 35 36 37
19 19 20 21 21 22 23 24 23 24 24 24 25 25 25 25 26 26 26 26 26 27 27 27 27 27 27 27 27 27 27 27 27 28 29 29 30 31 32 33 34 36 37
21 21 22 23 23 25 25 25 25 25 26 26 27 27 27 27 27 28 28 28 28 28 28 28 28 28 28 28 28 29 29 29 29 29 29 30 30 31 32 33 34 35 36
23 24 24 25 26 26 26 26 27 27 28 28 29 29 29 29 29 30 30 30 30 30 29 29 29 30 30 30 30 30 30 30 30 31 31 31 31 32 32 33 34 35 36
25 26 27 27 27 27 28 28 28 29 29 30 30 31 31 31 31 31 31 31 31 31 31 31 31 31 32 32 32 31 31 31 32 32 32 32 33 33 33 33 34 35 36
27 27 28 28 29 29 30 30 30 31 31 32 32 32 33 33 33 33 33 33 33 33 33 33 33 33 33 34 34 33 33 33 33 34 34 33 34 34 34 35 35 35 35
29 29 30 31 31 32 32 32 32 32 32 32 33 34 34 34 34 34 34 34 34 35 35 35 34 34 35 35 36 35 35 35 35 35 36 35 35 35 35 35 35 35 36
31 32 32 32 33 34 35 35 34 34 34 35 35 35 35 35 36 36 36 36 36 37 37 37 36 36 37 38 38 38 37 37 37 37 38 37 37 36 36 36 37 37 37
33 35 35 35 35 35 35 35 36 36 36 37 37 38 38 37 37 38 38 38 39 39 40 40 39 39 39 39 40 40 40 40 39 39 39 39 38 37 37 37 37 37 37
35 36 36 36 36 36 36 37 38 39 39 39 39 40 39 39 39 40 40 41 41 42 43 42 42 41 41 41 41 41 42 42 41 40 40 40 39 38 37 37 37 37 37

GEFSMA_500_meanwind_114.txt.gz
Wind_Speed
8 7 7 7 6 5 5 5 6 7 7 7 6 6 6 6 7 8 8 8 8 9 8 9 9 9 9 10 10 10 10 11 11 12 12 12 11 10 10 9 8 8 7
7 7 6 5 5 4 4 4 4 5 6 6 5 5 5 5 6 6 7 7 8 8 9 9 10 10 9 10 11 12 12 12 13 13 14 14 14 14 13 12 11 10 10
7 6 5 4 3 3 3 3 4 4 4 4 4 5 5 5 5 6 6 7 8 9 9 9 10 10 10 10 11 12 13 14 14 14 14 15 16 16 16 15 15 14 13
6 5 4 3 3 2 2 2 2 2 3 4 4 4 4 5 4 5 6 7 8 8 8 9 10 10 11 11 11 12 13 13 14 15 15 16 17 17 18 17 17 17 16
5 5 5 4 3 3 2 1 1 1 2 3 3 3 3 3 4 5 5 6 7 8 8 8 9 10 10 11 12 13 13 14 14 15 16 17 18 19 19 19 19 19 19
6 6 5 4 3 3 2 0 0 1 1 2 2 2 3 3 4 4 5 5 6 7 8 9 9 10 10 11 11 12 14 15 15 16 16 17 18 19 20 21 21 22 22
7 6 5 4 4 3 2 1 1 1 1 2 2 2 3 3 4 4 5 5 6 6 7 8 9 10 10 11 11 12 13 14 15 16 17 18 19 19 20 22 22 23 23
7 6 5 5 5 4 2 2 1 1 2 2 3 3 3 3 4 5 5 5 6 6 6 7 8 9 9 11 12 12 14 14 15 16 16 17 19 20 20 22 23 23 24
8 7 6 5 5 4 3 1 1 1 2 2 3 3 3 4 4 5 5 5 6 6 6 7 7 8 9 10 11 12 13 14 15 16 16 17 18 20 21 21 22 24 25
9 8 6 5 5 4 3 1 0 1 2 3 3 4 4 4 5 5 6 6 7 7 7 7 8 9 10 11 12 13 13 14 15 16 17 17 18 19 21 22 22 24 26
10 8 6 6 5 4 3 2 1 2 3 3 4 4 4 5 5 6 6 7 7 7 8 8 9 10 11 11 12 13 14 14 15 16 17 18 19 19 20 22 23 25 26
10 8 7 7 6 5 3 2 2 3 3 4 5 5 5 6 6 7 7 7 8 9 9 10 10 11 12 13 13 14 14 15 16 17 18 19 19 20 20 21 23 24 25
10 9 8 8 7 6 5 4 5 5 5 5 6 7 7 8 8 8 9 9 9 10 11 11 12 13 13 14 14 15 16 16 16 17 18 19 20 21 22 22 23 24 25
11 10 10 9 8 8 7 7 7 7 7 8 9 9 9 10 10 10 10 11 11 12 12 13 13 14 14 15 16 16 17 17 17 18 19 20 21 22 23 24 25 25 26
12 12 11 11 10 10 10 10 10 10 10 11 11 12 12 12 12 12 12 13 13 13 14 15 15 16 16 17 17 17 18 18 19 19 19 20 21 22 23 24 25 26 27
13 13 12 12 12 12 13 13 13 13 14 14 14 15 15 15 15 15 15 16 15 16 16 17 17 18 19 19 19 19 19 20 20 20 20 21 22 22 23 25 26 27 28
14 14 14 14 14 15 15 15 16 16 16 16 17 17 17 18 18 18 18 18 18 18 18 19 19 20 21 21 21 21 22 22 22 22 23 23 23 24 25 25 26 27 29
16 16 16 16 17 17 17 18 19 19 19 19 19 20 20 21 21 21 21 21 21 21 21 22 22 22 23 23 23 23 24 24 24 24 24 25 25 25 26 27 27 28 29
17 18 18 19 19 20 20 21 21 22 22 22 22 23 23 23 23 23 24 24 24 24 24 25 25 25 25 25 25 25 26 26 26 26 26 27 27 27 28 28 29 29 30
19 19 20 21 22 23 23 24 24 25 25 25 25 25 26 25 25 26 26 26 26 27 27 27 28 28 28 28 28 28 28 28 29 29 29 29 29 29 29 30 31 31 32
22 22 23 24 25 26 26 26 27 27 27 28 28 28 28 28 28 28 28 28 29 29 30 30 30 30 31 31 30 30 30 30 31 31 31 31 31 31 32 32 32 33 33
24 25 26 27 28 28 28 30 30 31 31 31 31 31 31 31 32 31 31 31 31 32 32 33 33 33 33 33 33 33 33 33 32 34 34 33 34 33 34 34 34 34 35
26 26 27 28 29 29 30 31 33 34 34 33 33 34 33 33 34 33 34 34 34 35 36 36 35 35 35 36 36 36 36 36 36 37 36 35 36 36 36 36 36 37 37
28 29 29 29 31 31 32 33 34 35 36 35 35 36 36 35 35 36 36 36 37 37 37 38 37 37 38 39 40 40 40 40 39 40 40 38 38 38 38 39 39 39 39
29 29 30 30 31 32 33 34 35 36 37 37 37 37 37 37 37 37 38 38 38 38 40 40 40 40 41 41 42 43 43 43 42 42 43 42 41 41 41 41 41 41 41
30 31 32 33 33 33 34 35 36 36 37 37 38 38 38 39 39 40 40 40 41 41 42 42 42 43 44 45 46 46 47 47 46 44 45 46 45 45 43 43 43 44 43

GEFSMA_500_meanwind_120.txt.gz
Wind_Speed
7 6 6 6 5 5 4 3 3 3 3 4 3 3 4 4 4 4 4 4 5 6 6 7 7 7 8 9 9 9 10 10 10 10 10 10 9 9 8 8 7 7 6
8 7 7 6 5 3 3 3 3 3 3 4 4 3 4 4 4 5 5 4 5 5 6 6 7 8 9 9 10 10 10 11 11 11 10 11 11 11 10 10 10 9 9
8 7 6 6 4 3 3 3 3 3 3 3 3 3 3 4 4 4 5 4 5 5 6 6 7 8 9 9 9 10 11 11 11 12 12 12 12 13 12 12 12 12 11
8 8 7 6 5 4 3 3 3 2 2 2 2 2 2 2 2 3 4 4 4 5 5 6 6 7 9 9 9 10 10 11 12 12 13 13 13 14 14 14 14 14 14
8 8 8 7 5 4 4 3 2 2 2 1 1 1 1 1 1 2 2 3 3 4 5 5 6 7 8 9 10 10 11 11 12 12 13 13 14 15 16 16 16 16 16
9 8 8 7 6 5 4 3 2 2 1 1 1 0 0 1 1 1 1 2 3 4 5 6 6 7 8 8 9 10 11 11 12 13 13 14 14 15 15 17 18 18 18
10 9 8 7 6 5 4 3 2 2 2 1 1 1 0 1 1 1 2 2 2 3 4 5 6 7 8 9 9 10 11 12 12 13 14 14 15 15 16 16 17 18 19
11 10 9 8 7 5 4 4 3 2 2 1 1 1 1 1 2 3 3 3 3 3 4 4 5 5 6 8 8 9 10 11 12 12 13 14 15 16 16 17 18 19 19
13 11 10 9 7 6 5 4 3 3 2 2 1 2 2 2 2 3 3 3 3 4 4 5 6 6 7 8 8 9 10 11 12 13 13 14 14 15 16 17 18 19 19
14 12 11 10 8 7 5 5 4 3 3 2 2 3 3 3 3 4 4 5 5 5 6 6 7 7 8 8 9 9 10 11 12 13 14 15 15 16 16 17 18 19 21
14 13 12 11 9 8 7 6 5 5 4 4 3 4 4 5 5 5 6 6 7 7 7 7 8 8 9 9 10 10 10 11 12 13 14 15 16 16 17 17 18 19 20
15 14 13 11 10 8 8 7 6 6 5 5 5 5 5 6 7 7 7 8 8 9 9 9 10 10 11 11 12 12 12 13 13 14 15 15 16 17 18 18 19 20 20
16 15 14 12 10 9 9 8 8 8 8 8 8 7 8 8 9 9 9 10 10 10 11 11 12 12 12 13 13 14 14 14 15 15 16 16 17 18 19 20 21 21 22
16 15 14 13 12 11 10 10 10 10 11 11 11 11 11 11 11 12 12 12 13 13 13 13 14 14 14 15 15 16 16 17 17 17 18 18 18 18 19 20 21 22 23
17 16 16 15 14 13 13 13 13 13 14 13 13 14 14 14 14 14 15 15 16 16 17 17 17 17 17 17 17 18 18 19 19 20 20 20 20 20 21 21 22 22 23
18 18 18 17 16 16 16 16 16 16 16 16 16 17 17 18 18 18 18 18 19 19 19 20 20 20 20 20 20 21 21 21 21 22 22 22 22 22 22 22 23 24 24
19 20 20 19 19 19 19 19 19 19 20 20 20 20 20 21 21 22 21 21 22 22 22 22 23 23 24 24 23 24 24 24 24 24 25 25 25 24 24 24 25 25 26
20 20 21 21 21 21 21 21 22 22 23 23 23 23 24 24 24 24 24 24 24 24 25 25 25 26 27 27 27 27 27 27 27 27 27 27 27 27 27 27 27 27 28
21 21 22 21 22 22 22 23 24 25 26 26 26 26 27 27 27 27 27 27 27 28 28 28 28 28 29 29 30 30 30 30 30 30 30 30 30 30 31 30 30 30 30
22 23 23 23 23 24 24 25 26 27 28 28 29 29 29 30 30 30 30 30 30 31 31 32 32 31 31 32 33 33 33 33 33 33 34 34 34 34 34 33 33 33 33
23 24 24 25 26 26 27 28 29 30 30 30 31 32 32 33 32 33 33 33 34 34 34 35 35 35 35 36 36 36 36 36 37 37 37 37 37 37 37 37 36 36 36
24 26 27 27 28 29 30 30 30 31 32 33 33 34 35 36 36 37 37 36 36 36 37 37 37 38 38 39 39 39 39 39 39 40 40 40 41 40 40 39 39 39 40
26 27 28 29 31 32 33 33 34 35 35 35 35 36 37 38 39 38 38 38 37 38 39 39 40 40 41 42 42 42 42 42 42 43 43 42 43 43 43 42 42 42 42
28 30 31 32 32 34 35 37 38 38 37 37 38 39 39 40 41 41 40 40 41 41 42 42 42 43 44 45 45 45 45 44 44 44 45 44 44 45 46 46 46 46 46
30 31 32 33 34 34 35 37 38 38 39 39 39 40 41 41 42 42 43 42 43 43 44 44 44 45 46 47 48 48 47 47 46 46 47 47 47 48 48 48 49 49 49
32 32 31 33 34 35 37 38 39 40 41 41 42 42 43 43 44 45 45 45 45 46 46 46 46 47 48 48 49 50 50 50 49 48 48 50 50 51 50 49 50 51 52

GEFSMA_500_meanwind_126.txt.gz
Wind_Speed
9 8 6 5 4 3 2 1 1 1 1 1 1 2 2 3 4 4 4 5 5 6 6 6 7 8 9 9 10 10 11 11 11 11 11 11 11 10 10 10 9 8 8
9 8 7 5 5 4 3 2 1 1 1 1 2 2 2 3 4 5 5 5 5 5 6 6 8 8 8 9 9 10 10 11 11 12 12 12 12 12 12 12 11 10 10
10 9 8 6 5 4 4 3 2 2 2 2 2 3 3 3 4 5 5 6 5 5 5 5 6 7 8 8 9 10 10 11 12 12 12 12 12 13 13 13 12 12 12
11 10 9 7 6 5 5 3 2 2 2 2 2 2 2 2 3 4 5 5 5 5 5 5 6 6 6 7 8 8 9 10 10 11 12 13 13 13 13 13 14 14 14
11 10 10 8 7 6 5 4 3 2 2 2 1 1 1 2 2 3 3 4 5 5 5 5 6 6 6 7 8 8 9 9 10 10 12 13 13 14 14 15 15 15 15
12 11 10 9 8 7 6 5 3 2 2 2 1 1 1 2 2 2 3 3 4 4 4 5 5 6 6 7 8 8 8 9 9 10 10 12 13 13 13 15 16 16 16
13 12 11 10 9 8 6 5 4 3 2 2 2 2 2 2 2 3 3 3 3 3 3 4 4 5 6 7 7 8 8 8 9 9 9 11 12 12 13 14 15 17 18
14 13 12 11 10 8 7 6 5 4 3 3 2 2 2 2 2 3 3 3 3 3 4 4 5 6 6 7 7 7 7 8 8 9 9 10 11 12 13 13 15 16 17
15 14 13 12 11 9 8 7 6 5 5 4 3 3 3 2 3 3 3 3 4 4 5 6 6 7 7 7 7 7 8 8 9 9 10 10 11 12 13 14 14 15 16
16 15 14 13 12 11 9 8 7 6 5 5 4 3 3 3 3 4 4 4 5 6 6 7 7 7 8 8 8 8 9 9 9 10 10 11 11 12 13 14 14 15 15
18 16 15 14 13 12 10 9 7 6 5 5 4 4 4 4 5 5 5 6 6 6 7 8 8 9 9 10 10 10 10 11 11 11 11 11 12 13 14 15 16 16 16
19 18 17 15 14 13 11 10 9 8 7 6 6 6 6 6 6 7 7 7 8 8 9 9 10 10 11 11 11 12 12 12 12 13 13 13 13 14 14 15 16 17 17
19 18 17 17 15 14 12 11 10 9 8 8 8 8 8 9 9 9 10 10 10 11 11 12 12 12 13 13 13 14 14 14 14 14 15 15 15 15 15 16 16 17 18
20 20 19 17 16 15 13 12 11 11 10 10 10 11 11 11 12 12 13 13 13 14 14 14 15 15 16 16 16 16 16 16 16 16 17 17 17 17 17 18 18 18 19
20 20 20 18 17 16 14 14 14 13 13 13 13 13 14 14 14 15 16 16 17 17 17 18 18 18 19 19 19 19 19 19 19 19 19 19 19 20 20 20 20 20 21
20 19 20 19 18 17 16 16 16 16 16 15 16 16 17 17 18 18 19 20 20 20 20 21 21 21 21 22 22 22 22 22 22 22 22 22 22 22 22 22 22 22 23
19 19 19 19 19 18 18 18 18 19 19 19 19 20 20 21 21 21 22 23 24 24 24 24 24 25 25 25 25 26 26 26 26 25 26 25 25 25 25 25 25 25 25
20 20 20 20 20 20 21 21 21 22 22 22 23 23 23 24 25 25 25 26 27 27 28 28 28 28 28 29 29 29 29 30 29 29 29 29 29 29 29 28 28 28 28
21 21 22 22 22 22 22 23 24 25 25 25 26 26 26 27 27 27 28 29 29 30 31 31 31 31 32 32 32 32 33 33 33 33 32 32 32 33 32 32 32 32 32
21 22 23 23 23 23 24 25 26 26 27 28 29 29 29 30 31 31 31 31 32 32 33 34 34 34 34 35 35 35 35 35 35 36 36 36 36 36 36 36 36 35 35
21 22 23 24 25 25 26 27 28 29 30 31 31 32 32 32 33 34 34 34 35 35 36 36 37 37 38 38 38 38 38 38 39 39 39 39 39 39 39 39 39 39 38
22 22 24 25 26 27 27 29 30 31 33 33 34 35 36 35 36 36 37 38 39 39 39 39 40 40 40 41 41 42 42 42 42 42 42 42 43 43 42 42 42 42 41
23 24 25 27 28 29 31 32 33 34 35 35 36 37 38 39 40 40 41 42 42 43 43 42 42 42 43 43 43 43 43 43 43 44 45 45 46 45 45 45 45 44 44
25 27 28 30 31 32 34 35 36 36 37 38 39 40 40 41 41 43 44 44 44 44 45 44 44 44 45 45 45 45 44 45 45 46 47 47 47 48 48 48 47 47 47
27 28 29 30 32 32 33 34 36 36 37 39 39 41 42 42 42 43 45 45 45 45 47 47 47 46 47 46 46 47 48 48 48 48 49 50 49 50 50 50 50 49 49
29 30 31 32 33 34 35 37 38 39 39 39 40 41 42 42 43 45 45 45 45 46 47 47 47 48 49 49 49 49 49 50 50 50 51 51 51 52 52 52 52 52 51

GEFSMA_500_meanwind_132.txt.gz
Wind_Speed
12 11 10 8 6 5 4 3 3 2 2 2 2 1 1 1 1 2 3 3 3 3 4 4 4 5 6 6 7 7 7 7 9 10 9 9 9 9 9 9 9 8 8
13 12 10 9 7 5 5 4 3 2 1 2 2 1 2 2 2 3 3 3 3 4 4 4 4 5 5 6 6 7 8 9 8 8 9 10 10 10 10 11 11 11 10
13 12 10 9 7 6 5 4 3 2 2 2 1 1 1 2 2 2 2 2 3 3 4 4 4 4 5 5 6 6 6 8 9 8 9 10 11 10 10 10 10 11 11
13 12 10 9 8 6 5 4 3 3 2 1 1 1 1 1 1 1 1 1 2 3 4 4 3 4 5 5 5 5 5 6 7 9 9 9 11 11 11 12 11 11 11
14 12 11 10 9 7 6 4 4 3 2 1 1 1 1 0 1 2 2 2 2 3 3 3 3 3 4 5 5 5 5 6 6 7 8 9 10 11 11 12 12 12 12
15 13 11 11 10 8 7 6 4 3 2 1 1 0 0 0 1 2 2 2 2 3 3 3 2 3 4 5 5 5 5 6 6 6 6 7 9 10 11 12 12 13 14
16 14 12 12 10 9 8 7 5 4 2 1 0 1 1 1 1 1 2 2 2 3 3 3 3 3 4 5 5 6 6 6 6 6 7 7 8 9 10 11 11 12 13
16 15 13 12 11 10 9 8 6 5 3 2 1 1 2 2 1 1 2 3 3 3 4 4 3 3 4 5 6 6 6 7 6 7 7 8 8 9 9 10 11 12 12
17 16 14 13 12 11 10 8 7 5 4 3 2 2 2 2 2 2 2 3 3 3 4 4 4 4 4 5 6 6 7 7 7 7 7 8 8 9 9 10 11 11 12
17 17 15 15 13 12 11 10 8 6 5 4 3 3 3 3 3 3 3 3 4 4 4 5 5 5 6 6 7 7 8 8 8 8 8 8 9 9 9 10 11 12 12
18 17 16 16 15 14 12 11 10 8 7 6 5 4 4 4 4 4 3 4 5 5 6 6 7 7 7 8 9 9 10 9 9 9 9 10 10 10 11 11 11 12 12
17 17 17 16 16 15 14 13 11 9 8 7 6 6 5 5 6 6 6 7 7 8 8 8 9 9 10 10 10 11 11 11 11 12 11 12 12 12 12 12 13 13 13
17 17 17 17 17 16 15 14 13 11 10 9 8 8 8 8 8 9 9 9 10 10 11 11 11 12 12 12 13 13 13 13 14 14 14 14 15 15 15 14 15 15 15
18 18 17 17 18 17 16 15 14 13 12 11 10 10 10 10 11 11 12 12 13 13 13 14 14 14 14 15 15 15 16 16 16 16 16 16 17 17 17 17 17 17 17
17 16 17 17 17 17 16 16 15 14 14 13 13 13 13 13 13 14 14 15 16 16 16 17 17 17 17 17 18 18 19 19 19 19 19 20 20 20 20 20 20 20 20
18 17 18 18 18 17 18 17 16 16 15 15 15 16 16 16 16 17 18 18 19 20 20 20 20 21 21 21 21 22 22 22 22 22 23 23 23 24 24 24 23 23 23
18 18 19 18 18 18 18 18 18 18 17 17 18 18 18 19 20 21 21 22 22 23 24 23 23 24 25 25 25 25 25 25 25 25 25 26 26 26 26 27 27 27 27
19 19 19 18 18 17 18 19 19 19 19 20 20 21 22 22 23 24 24 24 25 26 26 27 27 27 27 28 28 28 28 28 28 29 29 29 29 29 29 29 30 30 30
17 17 17 17 17 18 19 20 20 21 22 22 23 24 25 26 26 27 27 27 28 28 29 30 30 31 30 31 31 32 32 32 32 33 33 33 33 33 33 33 33 33 33
16 17 17 18 19 20 21 21 22 23 23 24 25 26 27 28 29 29 29 30 31 31 32 32 33 34 34 35 35 35 35 36 36 36 36 36 36 36 37 36 36 36 36
18 19 20 20 21 21 22 23 24 25 26 27 27 28 29 30 30 32 32 33 34 35 36 36 37 37 37 38 37 37 37 37 37 38 38 39 39 39 39 39 38 39 39
18 19 20 21 21 23 24 25 26 27 28 29 29 30 31 31 32 33 34 36 37 38 39 40 39 40 40 41 41 41 40 40 40 40 41 41 41 41 41 41 41 41 41
18 19 21 22 23 24 26 27 28 29 29 30 31 32 33 34 35 36 37 38 38 39 40 41 41 42 43 43 43 42 43 43 43 43 44 43 44 44 44 43 43 43 43
21 21 23 24 25 25 25 26 28 29 30 31 32 33 35 36 37 38 38 38 39 40 41 42 43 44 44 44 45 45 46 46 46 46 48 47 46 47 47 47 46 46 46
20 21 22 23 24 25 26 28 29 30 31 32 33 35 36 37 38 39 40 40 41 41 43 44 44 44 45 46 47 48 49 49 48 48 49 50 50 50 50 50 50 49 49
20 21 23 24 25 26 27 29 31 31 33 34 35 37 38 39 41 42 42 42 43 43 44 45 45 46 47 47 48 50 50 51 51 51 51 53 53 53 52 51 52 52 52